315  
ASUS42 KMHX 180824  
RWRMHX  
WEATHER ROUNDUP FOR EASTERN NORTH CAROLINA  
NATIONAL WEATHER SERVICE NEWPORT/MOREHEAD CITY NC  
400 AM EDT SAT APR 18 2015  
 
NOTE: "FAIR" INDICATES FEW OR NO CLOUDS BELOW 12,000 FEET  
WITH NO SIGNIFICANT WEATHER AND/OR S TO VISIBILITY
 
 
NCZ015>017-031-032-045>047-102-103-180900-  
NORTH COAST  
 
CITY SKY/WX TMP DP RH WIND PRES REMARKS
 
EDENTON CLOUDY 62 60 94 CALM 29.97S  
ELIZABETH CITY MOCLDY 61 60 97 CALM 29.96F  
KITTY HAWK CLOUDY 64 63 96 CALM 29.96S FOG  
MANTEO CLOUDY 62 61 97 CALM 29.97F  
 

 
 
NCZ045>047-081-094-103-104-180900-  
CENTRAL COAST  
 
CITY SKY/WX TMP DP RH WIND PRES REMARKS
 
FRISCO CLOUDY 62 60 93 CALM 29.97S  
SWANQUARTER N/A 64 N/A N/A N2 29.94S  
 

 
 
NCZ095-097-098-100-101-180900-  
SOUTHERN COAST  
 
CITY SKY/WX TMP DP RH WIND PRES REMARKS
 
BEAUFORT MOCLDY 65 64 97 CALM 29.96S  
CEDAR ISLAND N/A 66 N/A N/A CALM 30.00S  
JACKSONVILLE CLOUDY 65 63 93 NW6 29.96S  
PINEY ISLAND CLOUDY N/A N/A N/A N3 29.96F  
WILMINGTON CLOUDY 66 64 93 CALM 29.95F  
 

 
 
NCZ011>013-027>030-043-044-078>080-089-090>093-098-180900-  
COASTAL PLAIN  
 
CITY SKY/WX TMP DP RH WIND PRES REMARKS
 
AHOSKIE N/A 58 57 98 CALM 29.97S  
CLINTON CLOUDY 65 65 100 CALM 29.97F  
ELIZABETHTOWN DRIZZLE 66 66 100 CALM 29.96F  
GOLDSBORO CLOUDY 66 65 96 CALM 29.95F  
GREENVILLE CLOUDY 64 64 100 CALM 29.99S  
HAVELOCK MOCLDY 64 61 90 CALM 29.98S  
KENANSVILLE CLOUDY 64 63 96 CALM 29.97F  
KINSTON CLOUDY 64 64 98 CALM 29.98S  
NEW BERN CLOUDY 63 61 93 CALM 29.98S  
RICHLANDS CLOUDY 63 59 88 CALM 29.96F  
ROCKY MOUNT CLOUDY 62 61 96 CALM 29.96F FOG  
WASHINGTON N/A 64 62 95 CALM 29.98S  
WHITEVILLE CLOUDY 65 64 96 CALM 29.96F FOG  
 

 
 
AMZ130-135-150-152-154-156-158-170-250-252-270-ANZ085-086-088-633-658-670-180900-  
MARINE OBSERVATIONS  
 
STATION/POSITION TIME TEMP WIND PRES WAVE SWELL
 
AIR SEA DIR/SP/G HT/PER HT/PER  
(UTC) (F) (DEG/KT/KT) (MB) (FT/S) (FT/S)  
CHESAPEAKE LIGHT 0800 63 230/ 11/ 12 1014.7  
64 E VA BEACH 0750 58 54 220/ 6/ 8 1014.2 4/ 8 3/ 8  
DUCK 0800 65 54 210/ 5/ 6 1013.8  
2 E DUCK 0711 54 N/A 3/10 2/11  
10 NE DUCK NOT AVBL  
OREGON INLET 0800 60 60 170/ 2/ 2 1014.7  
HATTERAS CG 0800 67 67 60/ 2/ 3 1014.3  
DIAMOND BUOY 0750 70 74 20/ 8/ 8 1014.6 5/ 8 5/ 8  
CAPE LOOKOUT 0800 67 10/ 4/ 4 1014.4  
BEAUFORT LAB 0800 66 64 10/ 3/ 3 1013.7  
27 SE WRIGHTSVLE 0800 70 73 100/ 2/ 4 N/A  
5 SE WRIGHTSVLE 0800 65 63 10/ 6/ 8 1014.1  
225 S CAPE HAT 0750 72 73 240/ 6/ 8 1014.3 5/ 9 5/ 9  
41 SE CHARLESTON 0750 71 74 330/ 6/ 8 1014.1 4/ 8 3/ 8  
 

 
 
CLICK HERE TO GO TO PREVIOUS BULLETINS.

The Nexlab NC Page Main Text Page